• In Belarus
  • List of Countries
  • For 7 days
  • Water Temperature
  • Satellite Maps
  • Weather Map
  • Weather Widgets
  • user-avatar
    Login

    Hourly Weather Darkhan

    Today, 22 January, Tuesday

    Time Temperature Precipitation Wind Pressure Humidity
    00:00 -14°C° 0 mm 1 mps 687 mmHg 61%
    01:00 -14°C° 0 mm 1 mps 686 mmHg 61%
    02:00 -14°C° 0 mm 1 mps 686 mmHg 61%
    03:00 -14°C° 0 mm 1 mps 686 mmHg 61%
    04:00 -14°C° 0 mm 1 mps 686 mmHg 61%
    05:00 -14°C° 0 mm 1 mps 687 mmHg 60%
    06:00 -15°C° 0 mm 1 mps 687 mmHg 60%
    07:00 -15°C° 0 mm 1 mps 687 mmHg 60%
    08:00 -14°C° 0 mm 1 mps 687 mmHg 62%
    09:00 -13°C° 0 mm 1 mps 687 mmHg 65%
    10:00 -12°C° 0 mm 1 mps 687 mmHg 67%
    11:00 -11°C° 0 mm 1 mps 687 mmHg 68%
    12:00 -9°C° 0 mm 1 mps 687 mmHg 69%
    13:00 -8°C° 0 mm 1 mps 687 mmHg 69%
    14:00 -9°C° 0 mm 1 mps 687 mmHg 68%
    15:00 -10°C° 0 mm 1 mps 687 mmHg 67%
    16:00 -11°C° 0 mm 1 mps 686 mmHg 65%
    17:00 -11°C° 0 mm 1 mps 686 mmHg 64%
    18:00 -12°C° 0 mm 1 mps 687 mmHg 62%
    19:00 -13°C° 0 mm 1 mps 687 mmHg 61%
    20:00 -13°C° 0 mm 1 mps 687 mmHg 61%
    21:00 -13°C° 0 mm 1 mps 687 mmHg 60%
    22:00 -13°C° 0 mm 1 mps 687 mmHg 60%
    23:00 -13°C° 0 mm 1 mps 687 mmHg 61%

    Tomorrow, 23 January, Wednesday

    Time Temperature Precipitation Wind Pressure Humidity
    00:00 -14°C° 0 mm 1 mps 687 mmHg 63%
    01:00 -14°C° 0 mm 1 mps 687 mmHg 64%
    02:00 -14°C° 0 mm 1 mps 687 mmHg 67%
    03:00 -14°C° 0 mm 1 mps 687 mmHg 70%
    04:00 -14°C° 0 mm 1 mps 687 mmHg 73%
    05:00 -14°C° 0 mm 1 mps 688 mmHg 74%
    06:00 -15°C° 0 mm 1 mps 688 mmHg 76%
    07:00 -15°C° 0 mm 1 mps 688 mmHg 77%
    08:00 -14°C° 0 mm 1 mps 689 mmHg 80%
    09:00 -13°C° 0 mm 1 mps 690 mmHg 83%
    10:00 -12°C° 0 mm 1 mps 691 mmHg 86%
    11:00 -13°C° 0 mm 2 mps 691 mmHg 87%
    12:00 -10°C° 0 mm 2 mps 691 mmHg 87%
    13:00 -10°C° 0 mm 3 mps 691 mmHg 88%
    14:00 -10°C° 0 mm 2 mps 692 mmHg 89%
    15:00 -10°C° 0 mm 2 mps 692 mmHg 90%
    16:00 -10°C° 0 mm 1 mps 692 mmHg 90%
    17:00 -11°C° 0 mm 1 mps 693 mmHg 91%
    18:00 -11°C° 0 mm 1 mps 694 mmHg 92%
    19:00 -12°C° 0 mm 0 mps 694 mmHg 93%
    20:00 -12°C° 0 mm 0 mps 695 mmHg 93%
    21:00 -12°C° 0 mm 0 mps 695 mmHg 94%
    22:00 -12°C° 0 mm 0 mps 696 mmHg 94%
    23:00 -13°C° 0 mm 0 mps 696 mmHg 95%

    Day after tomorrow, 24 January, Thursday

    Time Temperature Precipitation Wind Pressure Humidity
    00:00 -13°C° 0 mm 0 mps 696 mmHg 95%
    01:00 -14°C° 0 mm 0 mps 696 mmHg 96%
    02:00 -14°C° 0 mm 1 mps 696 mmHg 96%
    03:00 -15°C° 0 mm 1 mps 696 mmHg 96%
    04:00 -15°C° 0 mm 1 mps 696 mmHg 96%
    05:00 -15°C° 0 mm 1 mps 697 mmHg 95%
    06:00 -15°C° 0 mm 1 mps 697 mmHg 95%
    07:00 -16°C° 0 mm 1 mps 697 mmHg 95%
    08:00 -15°C° 0 mm 1 mps 697 mmHg 94%
    09:00 -14°C° 0 mm 1 mps 698 mmHg 93%
    10:00 -13°C° 0 mm 1 mps 698 mmHg 92%
    11:00 -12°C° 0 mm 1 mps 698 mmHg 90%
    12:00 -11°C° 0 mm 1 mps 697 mmHg 88%
    13:00 -10°C° 0 mm 1 mps 697 mmHg 86%
    14:00 -11°C° 0 mm 1 mps 697 mmHg 87%
    15:00 -12°C° 0 mm 1 mps 697 mmHg 88%
    16:00 -13°C° 0 mm 1 mps 697 mmHg 89%
    17:00 -13°C° 0 mm 1 mps 697 mmHg 88%
    18:00 -14°C° 0 mm 1 mps 697 mmHg 87%
    19:00 -16°C° 0 mm 2 mps 697 mmHg 86%
    20:00 -17°C° 0 mm 2 mps 697 mmHg 85%
    21:00 -17°C° 0 mm 2 mps 697 mmHg 84%
    22:00 -17°C° 0 mm 2 mps 698 mmHg 83%
    23:00 -17°C° 0 mm 2 mps 697 mmHg 82%

    25 January, Friday

    Time Temperature Precipitation Wind Pressure Humidity
    00:00 -17°C° 0 mm 2 mps 697 mmHg 82%
    01:00 -18°C° 0 mm 2 mps 697 mmHg 81%
    02:00 -18°C° 0 mm 2 mps 697 mmHg 80%
    03:00 -18°C° 0 mm 2 mps 697 mmHg 80%
    04:00 -18°C° 0 mm 2 mps 697 mmHg 79%
    05:00 -18°C° 0 mm 2 mps 697 mmHg 78%
    06:00 -18°C° 0 mm 2 mps 696 mmHg 76%
    07:00 -18°C° 0 mm 2 mps 696 mmHg 75%
    08:00 -17°C° 0 mm 2 mps 696 mmHg 76%
    09:00 -16°C° 0 mm 2 mps 696 mmHg 76%
    10:00 -15°C° 0 mm 2 mps 696 mmHg 76%
    11:00 -14°C° 0 mm 2 mps 696 mmHg 75%
    12:00 -13°C° 0 mm 2 mps 695 mmHg 74%
    13:00 -10°C° 0 mm 2 mps 695 mmHg 74%
    14:00 -12°C° 0 mm 2 mps 695 mmHg 74%
    15:00 -13°C° 0 mm 2 mps 694 mmHg 74%
    16:00 -14°C° 0 mm 2 mps 694 mmHg 74%
    17:00 -14°C° 0 mm 2 mps 694 mmHg 74%
    18:00 -15°C° 0 mm 2 mps 694 mmHg 74%
    19:00 -15°C° 0 mm 2 mps 694 mmHg 74%
    20:00 -15°C° 0 mm 2 mps 694 mmHg 75%
    21:00 -15°C° 0 mm 2 mps 694 mmHg 75%
    22:00 -15°C° 0 mm 2 mps 694 mmHg 76%
    23:00 -15°C° 0 mm 2 mps 693 mmHg 76%

    26 January, Saturday

    Time Temperature Precipitation Wind Pressure Humidity
    00:00 -16°C° 0 mm 2 mps 693 mmHg 77%
    01:00 -16°C° 0 mm 2 mps 693 mmHg 78%
    02:00 -16°C° 0 mm 2 mps 692 mmHg 78%
    03:00 -16°C° 0 mm 2 mps 692 mmHg 79%
    04:00 -17°C° 0 mm 2 mps 691 mmHg 80%
    05:00 -15°C° 0 mm 1 mps 691 mmHg 80%
    06:00 -15°C° 0 mm 1 mps 690 mmHg 81%
    07:00 -15°C° 0 mm 1 mps 690 mmHg 81%
    08:00 -14°C° 0 mm 1 mps 690 mmHg 82%
    09:00 -13°C° 0 mm 1 mps 690 mmHg 83%
    10:00 -12°C° 0 mm 1 mps 690 mmHg 83%
    11:00 -12°C° 0 mm 1 mps 690 mmHg 81%
    12:00 -11°C° 0 mm 1 mps 689 mmHg 79%
    13:00 -10°C° 0 mm 1 mps 689 mmHg 77%
    14:00 -11°C° 0 mm 1 mps 689 mmHg 80%
    15:00 -12°C° 0 mm 1 mps 689 mmHg 83%
    16:00 -13°C° 0 mm 1 mps 689 mmHg 87%
    17:00 -14°C° 0 mm 1 mps 690 mmHg 87%
    18:00 -15°C° 0 mm 1 mps 690 mmHg 88%
    19:00 -16°C° 0 mm 0 mps 691 mmHg 89%
    20:00 -16°C° 0 mm 0 mps 691 mmHg 89%
    21:00 -16°C° 0 mm 0 mps 692 mmHg 88%
    22:00 -16°C° 0 mm 0 mps 692 mmHg 88%
    23:00 -16°C° 0 mm 1 mps 692 mmHg 89%

    27 January, Sunday

    Time Temperature Precipitation Wind Pressure Humidity
    00:00 -16°C° 0 mm 1 mps 692 mmHg 89%
    01:00 -16°C° 0 mm 1 mps 692 mmHg 90%
    02:00 -16°C° 0 mm 1 mps 692 mmHg 90%
    03:00 -19°C° 0 mm 2 mps 692 mmHg 90%
    04:00 -19°C° 0 mm 2 mps 692 mmHg 91%
    05:00 -19°C° 0 mm 2 mps 692 mmHg 91%
    06:00 -19°C° 0 mm 2 mps 692 mmHg 91%
    07:00 -19°C° 0 mm 2 mps 691 mmHg 90%
    08:00 -19°C° 0 mm 3 mps 691 mmHg 89%
    09:00 -18°C° 0 mm 3 mps 691 mmHg 88%
    10:00 -17°C° 0 mm 3 mps 691 mmHg 87%
    11:00 -16°C° 0 mm 3 mps 691 mmHg 85%
    12:00 -15°C° 0 mm 3 mps 690 mmHg 82%
    13:00 -15°C° 0 mm 4 mps 689 mmHg 80%
    14:00 -15°C° 0 mm 3 mps 689 mmHg 80%
    15:00 -15°C° 0 mm 3 mps 689 mmHg 81%
    16:00 -16°C° 0 mm 3 mps 689 mmHg 82%
    17:00 -16°C° 0 mm 3 mps 689 mmHg 81%
    18:00 -17°C° 0 mm 3 mps 689 mmHg 80%
    19:00 -17°C° 0 mm 3 mps 689 mmHg 79%
    20:00 -17°C° 0 mm 3 mps 689 mmHg 78%
    21:00 -17°C° 0 mm 3 mps 688 mmHg 77%
    22:00 -17°C° 0 mm 3 mps 688 mmHg 77%
    23:00 -17°C° 0 mm 3 mps 688 mmHg 76%
    Show more